Location: ??????
(55.2000°N, 38.3000°E)
Time: 01:13:47
(UTC+00:00)

Lacrosse 4 Rocket - Pass Details

Date: 15 November 2025
Orbit: 513 x 567 km, 68.0° (Epoch: 12 December)

Event Time Altitude Azimuth Distance (km) Brightness Sun altitude
Exits shadow 02:45:55 22° 341° (NNW) 1,219 2.8 -18.7°
Maximum altitude 02:48:07 41° 40° (NE) 779 2.3 -18.4°
Drops below altitude 10° 02:51:51 10° 112° (ESE) 1,763 5.1 -17.9°
Sets 02:54:06 0° 120° (ESE) 2,641 6.1 -17.6°
